sat.trackr.live / text

‹ back to catalog

TIANQI-31

NORAD 61197 · 2024-170C

PAYLOAD ACTIVE UNKNOWN

§ Identity

Operator
Country
PRC
Launch date
2024-09-20
Launch site
XICLF
Launch vehicle
Mass (kg)
RCS (m²)

External: N2YO · Heavens-Above · Gunter

§ Orbital elements

Epoch: 2026-09-22T20:36:01.720800Z

Period
103.02 min
Inclination
44.8621°
Eccentricity
0.0008841
Mean motion
13.97728405 rev/d
Perigee alt
895.2 km
Apogee alt
908.1 km
Semi-major
7,279.8 km
B*
6.6874e-5
RAAN
62.8314°
Arg perigee
180.0094°
Mean anomaly
180.0737°
Rev number
10,261

§ Raw data

TIANQI-311 61197U 24170C   26265.85835325 -.00000032  00000+0  66874-4 0  99982 61197  44.8621  62.8314 0008841 180.0094 180.0737 13.97728405102610

JSON: /api/v1/satellites/61197 · /tle

For live sub-satellite position, see the globe view (requires WebGL).

§ Visibility from observer

Set your observer location to see the next 7 days of passes ≥ 10°. The values pass through the URL so the page stays shareable.

No JS? Fill the form by hand. The geolocation button needs JavaScript.